Year,Month,Day,Hour,Minute,Value (Times are PST for temperature in C)
2016,06,10,00,00,9.50
2016,06,10,00,01,9.50
2016,06,10,00,02,9.50
2016,06,10,00,03,9.40
2016,06,10,00,04,9.40
2016,06,10,00,05,9.40
2016,06,10,00,06,9.40
2016,06,10,00,07,9.30
2016,06,10,00,08,9.30
2016,06,10,00,09,9.30
2016,06,10,00,10,9.30
2016,06,10,00,11,9.20
2016,06,10,00,12,9.20
2016,06,10,00,13,9.20
2016,06,10,00,14,9.20
2016,06,10,00,15,9.20
2016,06,10,00,16,9.20
2016,06,10,00,17,9.20
2016,06,10,00,18,9.20
2016,06,10,00,19,9.20
2016,06,10,00,20,9.20
2016,06,10,00,21,9.20
2016,06,10,00,22,9.20
2016,06,10,00,23,9.20
2016,06,10,00,24,9.20
2016,06,10,00,25,9.20
2016,06,10,00,26,9.20
2016,06,10,00,27,9.10
2016,06,10,00,28,9.10
2016,06,10,00,29,9.10
2016,06,10,00,30,9.10
2016,06,10,00,31,9.10
2016,06,10,00,32,9.10
2016,06,10,00,33,9.10
2016,06,10,00,34,9.10
2016,06,10,00,35,9.10
2016,06,10,00,36,9.10
2016,06,10,00,37,9.10
2016,06,10,00,38,9.10
2016,06,10,00,39,9.10
2016,06,10,00,40,9.10
2016,06,10,00,41,9.10
2016,06,10,00,42,9.10
2016,06,10,00,43,9.10
2016,06,10,00,44,9.10
2016,06,10,00,45,9.10
2016,06,10,00,46,9.10
2016,06,10,00,47,9.10
2016,06,10,00,48,9.10
2016,06,10,00,49,9.10
2016,06,10,00,50,9.10
2016,06,10,00,51,9.10
2016,06,10,00,52,9.10
2016,06,10,00,53,9.10
2016,06,10,00,54,9.10
2016,06,10,00,55,9.10
2016,06,10,00,56,9.10
2016,06,10,00,57,9.00
2016,06,10,00,58,9.00
2016,06,10,00,59,9.00
2016,06,10,01,00,9.00
2016,06,10,01,01,9.00
2016,06,10,01,02,9.00
2016,06,10,01,03,9.00
2016,06,10,01,04,9.00
2016,06,10,01,05,9.00
2016,06,10,01,06,9.00
2016,06,10,01,07,9.00
2016,06,10,01,08,9.00
2016,06,10,01,09,9.00
2016,06,10,01,10,8.90
2016,06,10,01,11,8.90
2016,06,10,01,12,8.90
2016,06,10,01,13,8.90
2016,06,10,01,14,8.90
2016,06,10,01,15,8.80
2016,06,10,01,16,8.80
2016,06,10,01,17,8.80
2016,06,10,01,18,8.80
2016,06,10,01,19,8.80
2016,06,10,01,20,8.80
2016,06,10,01,21,8.80
2016,06,10,01,22,8.80
2016,06,10,01,23,8.80
2016,06,10,01,24,8.80
2016,06,10,01,25,8.80
2016,06,10,01,26,8.80
2016,06,10,01,27,8.80
2016,06,10,01,28,8.80
2016,06,10,01,29,8.80
2016,06,10,01,30,8.80
2016,06,10,01,31,8.80
2016,06,10,01,32,8.80
2016,06,10,01,33,8.80
2016,06,10,01,34,8.80
2016,06,10,01,35,8.80
2016,06,10,01,36,8.80
2016,06,10,01,37,8.80
2016,06,10,01,38,8.70
2016,06,10,01,39,8.70
2016,06,10,01,40,8.70
2016,06,10,01,41,8.70
2016,06,10,01,42,8.70
2016,06,10,01,43,8.70
2016,06,10,01,44,8.70
2016,06,10,01,45,8.70
2016,06,10,01,46,8.70
2016,06,10,01,47,8.70
2016,06,10,01,48,8.70
2016,06,10,01,49,8.70
2016,06,10,01,50,8.70
2016,06,10,01,51,8.70
2016,06,10,01,52,8.70
2016,06,10,01,53,8.70
2016,06,10,01,54,8.70
2016,06,10,01,55,8.70
2016,06,10,01,56,8.70
2016,06,10,01,57,8.70
2016,06,10,01,58,8.70
2016,06,10,01,59,8.70
2016,06,10,02,00,8.70
2016,06,10,02,01,8.70
2016,06,10,02,02,8.70
2016,06,10,02,03,8.60
2016,06,10,02,04,8.70
2016,06,10,02,05,8.60
2016,06,10,02,06,8.60
2016,06,10,02,07,8.60
2016,06,10,02,08,8.60
2016,06,10,02,09,8.60
2016,06,10,02,10,8.60
2016,06,10,02,11,8.60
2016,06,10,02,12,8.60
2016,06,10,02,13,8.60
2016,06,10,02,14,8.60
2016,06,10,02,15,8.60
2016,06,10,02,16,8.50
2016,06,10,02,17,8.50
2016,06,10,02,18,8.50
2016,06,10,02,19,8.50
2016,06,10,02,20,8.50
2016,06,10,02,21,8.50
2016,06,10,02,22,8.40
2016,06,10,02,23,8.40
2016,06,10,02,24,8.40
2016,06,10,02,25,8.40
2016,06,10,02,26,8.40
2016,06,10,02,27,8.40
2016,06,10,02,28,8.40
2016,06,10,02,29,8.30
2016,06,10,02,30,8.30
2016,06,10,02,31,8.30
2016,06,10,02,32,8.30
2016,06,10,02,33,8.30
2016,06,10,02,34,8.30
2016,06,10,02,35,8.20
2016,06,10,02,36,8.20
2016,06,10,02,37,8.20
2016,06,10,02,38,8.20
2016,06,10,02,39,8.10
2016,06,10,02,40,8.10
2016,06,10,02,41,8.10
2016,06,10,02,42,8.00
2016,06,10,02,43,8.00
2016,06,10,02,44,7.90
2016,06,10,02,45,7.90
2016,06,10,02,46,7.90
2016,06,10,02,47,7.90
2016,06,10,02,48,7.90
2016,06,10,02,49,7.90
2016,06,10,02,50,7.90
2016,06,10,02,51,7.90
2016,06,10,02,52,7.90
2016,06,10,02,53,7.90
2016,06,10,02,54,7.90
2016,06,10,02,55,7.90
2016,06,10,02,56,7.80
2016,06,10,02,57,7.80
2016,06,10,02,58,7.80
2016,06,10,02,59,7.80
2016,06,10,03,00,7.80
2016,06,10,03,01,7.70
2016,06,10,03,02,7.70
2016,06,10,03,03,7.70
2016,06,10,03,04,7.70
2016,06,10,03,05,7.70
2016,06,10,03,06,7.70
2016,06,10,03,07,7.70
2016,06,10,03,08,7.70
2016,06,10,03,09,7.70
2016,06,10,03,10,7.70
2016,06,10,03,11,7.70
2016,06,10,03,12,7.70
2016,06,10,03,13,7.70
2016,06,10,03,14,7.70
2016,06,10,03,15,7.70
2016,06,10,03,16,7.70
2016,06,10,03,17,7.70
2016,06,10,03,18,7.70
2016,06,10,03,19,7.70
2016,06,10,03,20,7.70
2016,06,10,03,21,7.70
2016,06,10,03,22,7.70
2016,06,10,03,23,7.70
2016,06,10,03,24,7.70
2016,06,10,03,25,7.70
2016,06,10,03,26,7.70
2016,06,10,03,27,7.70
2016,06,10,03,28,7.70
2016,06,10,03,29,7.70
2016,06,10,03,30,7.70
2016,06,10,03,31,7.70
2016,06,10,03,32,7.70
2016,06,10,03,33,7.70
2016,06,10,03,34,7.70
2016,06,10,03,35,7.70
2016,06,10,03,36,7.60
2016,06,10,03,37,7.60
2016,06,10,03,38,7.60
2016,06,10,03,39,7.60
2016,06,10,03,40,7.60
2016,06,10,03,41,7.60
2016,06,10,03,42,7.60
2016,06,10,03,43,7.60
2016,06,10,03,44,7.60
2016,06,10,03,45,7.60
2016,06,10,03,46,7.60
2016,06,10,03,47,7.60
2016,06,10,03,48,7.60
2016,06,10,03,49,7.60
2016,06,10,03,50,7.60
2016,06,10,03,51,7.60
2016,06,10,03,52,7.60
2016,06,10,03,53,7.60
2016,06,10,03,54,7.60
2016,06,10,03,55,7.60
2016,06,10,03,56,7.60
2016,06,10,03,57,7.60
2016,06,10,03,58,7.70
2016,06,10,03,59,7.70
2016,06,10,04,00,7.70
2016,06,10,04,01,7.70
2016,06,10,04,02,7.70
2016,06,10,04,03,7.70
2016,06,10,04,04,7.70
2016,06,10,04,05,7.70
2016,06,10,04,06,7.70
2016,06,10,04,07,7.70
2016,06,10,04,08,7.70
2016,06,10,04,09,7.70
2016,06,10,04,10,7.70
2016,06,10,04,11,7.80
2016,06,10,04,12,7.80
2016,06,10,04,13,7.80
2016,06,10,04,14,7.80
2016,06,10,04,15,7.80
2016,06,10,04,16,7.80
2016,06,10,04,17,7.90
2016,06,10,04,18,7.90
2016,06,10,04,19,7.90
2016,06,10,04,20,7.90
2016,06,10,04,21,7.90
2016,06,10,04,22,7.90
2016,06,10,04,23,7.90
2016,06,10,04,24,7.90
2016,06,10,04,25,7.90
2016,06,10,04,26,7.90
2016,06,10,04,27,8.00
2016,06,10,04,28,8.00
2016,06,10,04,29,8.00
2016,06,10,04,30,8.00
2016,06,10,04,31,8.00
2016,06,10,04,32,8.00
2016,06,10,04,33,8.00
2016,06,10,04,34,8.00
2016,06,10,04,35,8.00
2016,06,10,04,36,8.00
2016,06,10,04,37,8.00
2016,06,10,04,38,8.00
2016,06,10,04,39,8.00
2016,06,10,04,40,8.00
2016,06,10,04,41,8.00
2016,06,10,04,42,8.00
2016,06,10,04,43,8.00
2016,06,10,04,44,8.00
2016,06,10,04,45,8.00
2016,06,10,04,46,8.00
2016,06,10,04,47,8.00
2016,06,10,04,48,8.00
2016,06,10,04,49,8.00
2016,06,10,04,50,8.00
2016,06,10,04,51,8.00
2016,06,10,04,52,8.00
2016,06,10,04,53,8.00
2016,06,10,04,54,8.10
2016,06,10,04,55,8.10
2016,06,10,04,56,8.10
2016,06,10,04,57,8.10
2016,06,10,04,58,8.10
2016,06,10,04,59,8.10
2016,06,10,05,00,8.10
2016,06,10,05,01,8.10
2016,06,10,05,02,8.10
2016,06,10,05,03,8.10
2016,06,10,05,04,8.10
2016,06,10,05,05,8.10
2016,06,10,05,06,8.10
2016,06,10,05,07,8.10
2016,06,10,05,08,8.10
2016,06,10,05,09,8.20
2016,06,10,05,10,8.20
2016,06,10,05,11,8.20
2016,06,10,05,12,8.20
2016,06,10,05,13,8.20
2016,06,10,05,14,8.20
2016,06,10,05,15,8.20
2016,06,10,05,16,8.20
2016,06,10,05,17,8.20
2016,06,10,05,18,8.20
2016,06,10,05,19,8.20
2016,06,10,05,20,8.20
2016,06,10,05,21,8.20
2016,06,10,05,22,8.20
2016,06,10,05,23,8.20
2016,06,10,05,24,8.20
2016,06,10,05,25,8.20
2016,06,10,05,26,8.20
2016,06,10,05,27,8.20
2016,06,10,05,28,8.20
2016,06,10,05,29,8.20
2016,06,10,05,30,8.20
2016,06,10,05,31,8.20
2016,06,10,05,32,8.20
2016,06,10,05,33,8.20
2016,06,10,05,34,8.20
2016,06,10,05,35,8.20
2016,06,10,05,36,8.20
2016,06,10,05,37,8.20
2016,06,10,05,38,8.20
2016,06,10,05,39,8.20
2016,06,10,05,40,8.20
2016,06,10,05,41,8.30
2016,06,10,05,42,8.30
2016,06,10,05,43,8.30
2016,06,10,05,44,8.30
2016,06,10,05,45,8.30
2016,06,10,05,46,8.30
2016,06,10,05,47,8.30
2016,06,10,05,48,8.30
2016,06,10,05,49,8.30
2016,06,10,05,50,8.30
2016,06,10,05,51,8.30
2016,06,10,05,52,8.30
2016,06,10,05,53,8.30
2016,06,10,05,54,8.30
2016,06,10,05,55,8.30
2016,06,10,05,56,8.30
2016,06,10,05,57,8.30
2016,06,10,05,58,8.30
2016,06,10,05,59,8.30
2016,06,10,06,00,8.30
2016,06,10,06,01,8.30
2016,06,10,06,02,8.30
2016,06,10,06,03,8.30
2016,06,10,06,04,8.30
2016,06,10,06,05,8.40
2016,06,10,06,06,8.40
2016,06,10,06,07,8.40
2016,06,10,06,08,8.40
2016,06,10,06,09,8.40
2016,06,10,06,10,8.40
2016,06,10,06,11,8.40
2016,06,10,06,12,8.40
2016,06,10,06,13,8.40
2016,06,10,06,14,8.40
2016,06,10,06,15,8.40
2016,06,10,06,16,8.40
2016,06,10,06,17,8.40
2016,06,10,06,18,8.40
2016,06,10,06,19,8.40
2016,06,10,06,20,8.40
2016,06,10,06,21,8.40
2016,06,10,06,22,8.50
2016,06,10,06,23,8.50
2016,06,10,06,24,8.50
2016,06,10,06,25,8.50
2016,06,10,06,26,8.50
2016,06,10,06,27,8.50
2016,06,10,06,28,8.60
2016,06,10,06,29,8.60
2016,06,10,06,30,8.60
2016,06,10,06,31,8.60
2016,06,10,06,32,8.60
2016,06,10,06,33,8.60
2016,06,10,06,34,8.70
2016,06,10,06,35,8.70
2016,06,10,06,36,8.70
2016,06,10,06,37,8.70
2016,06,10,06,38,8.70
2016,06,10,06,39,8.70
2016,06,10,06,40,8.80
2016,06,10,06,41,8.80
2016,06,10,06,42,8.80
2016,06,10,06,43,8.80
2016,06,10,06,44,8.80
2016,06,10,06,45,8.80
2016,06,10,06,46,8.80
2016,06,10,06,47,8.80
2016,06,10,06,48,8.80
2016,06,10,06,49,8.90
2016,06,10,06,50,8.90
2016,06,10,06,51,8.90
2016,06,10,06,52,8.90
2016,06,10,06,53,8.90
2016,06,10,06,54,8.90
2016,06,10,06,55,9.00
2016,06,10,06,56,9.00
2016,06,10,06,57,9.00
2016,06,10,06,58,9.00
2016,06,10,06,59,9.10
2016,06,10,07,00,9.10
2016,06,10,07,01,9.10
2016,06,10,07,02,9.10
2016,06,10,07,03,9.10
2016,06,10,07,04,9.10
2016,06,10,07,05,9.10
2016,06,10,07,06,9.10
2016,06,10,07,07,9.20
2016,06,10,07,08,9.20
2016,06,10,07,09,9.20
2016,06,10,07,10,9.20
2016,06,10,07,11,9.20
2016,06,10,07,12,9.20
2016,06,10,07,13,9.20
2016,06,10,07,14,9.20
2016,06,10,07,15,9.20
2016,06,10,07,16,9.30
2016,06,10,07,17,9.30
2016,06,10,07,18,9.30
2016,06,10,07,19,9.30
2016,06,10,07,20,9.30
2016,06,10,07,21,9.40
2016,06,10,07,22,9.40
2016,06,10,07,23,9.40
2016,06,10,07,24,9.40
2016,06,10,07,25,9.40
2016,06,10,07,26,9.40
2016,06,10,07,27,9.50
2016,06,10,07,28,9.50
2016,06,10,07,29,9.50
2016,06,10,07,30,9.50
2016,06,10,07,31,9.50
2016,06,10,07,32,9.50
2016,06,10,07,33,9.50
2016,06,10,07,34,9.60
2016,06,10,07,35,9.60
2016,06,10,07,36,9.60
2016,06,10,07,37,9.60
2016,06,10,07,38,9.60
2016,06,10,07,39,9.60
2016,06,10,07,40,9.60
2016,06,10,07,41,9.60
2016,06,10,07,42,9.60
2016,06,10,07,43,9.60
2016,06,10,07,44,9.60
2016,06,10,07,45,9.60
2016,06,10,07,46,9.60
2016,06,10,07,47,9.60
2016,06,10,07,48,9.60
2016,06,10,07,49,9.60
2016,06,10,07,50,9.70
2016,06,10,07,51,9.70
2016,06,10,07,52,9.70
2016,06,10,07,53,9.70
2016,06,10,07,54,9.70
2016,06,10,07,55,9.80
2016,06,10,07,56,9.80
2016,06,10,07,57,9.90
2016,06,10,07,58,9.90
2016,06,10,07,59,9.90
2016,06,10,08,00,10.00
2016,06,10,08,01,10.00
2016,06,10,08,02,10.00
2016,06,10,08,03,10.10
2016,06,10,08,04,10.10
2016,06,10,08,05,10.10
2016,06,10,08,06,10.10
2016,06,10,08,07,10.20
2016,06,10,08,08,10.20
2016,06,10,08,09,10.20
2016,06,10,08,10,10.30
2016,06,10,08,11,10.30
2016,06,10,08,12,10.30
2016,06,10,08,13,10.30
2016,06,10,08,14,10.30
2016,06,10,08,15,10.30
2016,06,10,08,16,10.30
2016,06,10,08,17,10.30
2016,06,10,08,18,10.30
2016,06,10,08,19,10.30
2016,06,10,08,20,10.30
2016,06,10,08,21,10.30
2016,06,10,08,22,10.30
2016,06,10,08,23,10.30
2016,06,10,08,24,10.40
2016,06,10,08,25,10.40
2016,06,10,08,26,10.40
2016,06,10,08,27,10.50
2016,06,10,08,28,10.60
2016,06,10,08,29,10.70
2016,06,10,08,30,10.80
2016,06,10,08,31,10.80
2016,06,10,08,32,10.80
2016,06,10,08,33,10.80
2016,06,10,08,34,10.80
2016,06,10,08,35,10.80
2016,06,10,08,36,10.80
2016,06,10,08,37,10.80
2016,06,10,08,38,10.80
2016,06,10,08,39,10.80
2016,06,10,08,40,10.80
2016,06,10,08,41,10.80
2016,06,10,08,42,10.80
2016,06,10,08,43,10.80
2016,06,10,08,44,10.80
2016,06,10,08,45,10.90
2016,06,10,08,46,10.90
2016,06,10,08,47,10.90
2016,06,10,08,48,11.00
2016,06,10,08,49,11.00
2016,06,10,08,50,11.00
2016,06,10,08,51,11.10
2016,06,10,08,52,11.20
2016,06,10,08,53,11.20
2016,06,10,08,54,11.30
2016,06,10,08,55,11.40
2016,06,10,08,56,11.40
2016,06,10,08,57,11.50
2016,06,10,08,58,11.50
2016,06,10,08,59,11.50
2016,06,10,09,00,11.70
2016,06,10,09,01,11.80
2016,06,10,09,02,11.80
2016,06,10,09,03,11.90
2016,06,10,09,04,11.90
2016,06,10,09,05,11.90
2016,06,10,09,06,11.90
2016,06,10,09,07,11.90
2016,06,10,09,08,11.90
2016,06,10,09,09,11.90
2016,06,10,09,10,11.90
2016,06,10,09,11,11.90
2016,06,10,09,12,11.90
2016,06,10,09,13,12.00
2016,06,10,09,14,12.00
2016,06,10,09,15,12.10
2016,06,10,09,16,12.20
2016,06,10,09,17,12.30
2016,06,10,09,18,12.20
2016,06,10,09,19,12.20
2016,06,10,09,20,12.30
2016,06,10,09,21,12.30
2016,06,10,09,22,12.30
2016,06,10,09,23,12.30
2016,06,10,09,24,12.40
2016,06,10,09,25,12.40
2016,06,10,09,26,12.40
2016,06,10,09,27,12.40
2016,06,10,09,28,12.40
2016,06,10,09,29,12.40
2016,06,10,09,30,12.40
2016,06,10,09,31,12.50
2016,06,10,09,32,12.50
2016,06,10,09,33,12.60
2016,06,10,09,34,12.60
2016,06,10,09,35,12.60
2016,06,10,09,36,12.60
2016,06,10,09,37,12.60
2016,06,10,09,38,12.70
2016,06,10,09,39,12.70
2016,06,10,09,40,12.70
2016,06,10,09,41,12.70
2016,06,10,09,42,12.70
2016,06,10,09,43,12.70
2016,06,10,09,44,12.70
2016,06,10,09,45,12.70
2016,06,10,09,46,12.70
2016,06,10,09,47,12.70
2016,06,10,09,48,12.70
2016,06,10,09,49,12.70
2016,06,10,09,50,12.70
2016,06,10,09,51,12.60
2016,06,10,09,52,12.60
2016,06,10,09,53,12.60
2016,06,10,09,54,12.60
2016,06,10,09,55,12.60
2016,06,10,09,56,12.60
2016,06,10,09,57,12.60
2016,06,10,09,58,12.50
2016,06,10,09,59,12.50
2016,06,10,10,00,12.40
2016,06,10,10,01,12.30
2016,06,10,10,02,12.30
2016,06,10,10,03,12.20
2016,06,10,10,04,12.20
2016,06,10,10,05,12.20
2016,06,10,10,06,12.20
2016,06,10,10,07,12.20
2016,06,10,10,08,12.20
2016,06,10,10,09,12.20
2016,06,10,10,10,12.20
2016,06,10,10,11,12.20
2016,06,10,10,12,12.20
2016,06,10,10,13,12.20
2016,06,10,10,14,12.20
2016,06,10,10,15,12.20
2016,06,10,10,16,12.30
2016,06,10,10,17,12.30
2016,06,10,10,18,12.20
2016,06,10,10,19,12.20
2016,06,10,10,20,12.20
2016,06,10,10,21,12.20
2016,06,10,10,22,12.20
2016,06,10,10,23,12.20
2016,06,10,10,24,12.20
2016,06,10,10,25,12.20
2016,06,10,10,26,12.20
2016,06,10,10,27,12.10
2016,06,10,10,28,12.10
2016,06,10,10,29,12.10
2016,06,10,10,30,12.10
2016,06,10,10,31,12.10
2016,06,10,10,32,12.20
2016,06,10,10,33,12.20
2016,06,10,10,34,12.20
2016,06,10,10,35,12.30
2016,06,10,10,36,12.30
2016,06,10,10,37,12.40
2016,06,10,10,38,12.50
2016,06,10,10,39,12.50
2016,06,10,10,40,12.60
2016,06,10,10,41,12.70
2016,06,10,10,42,12.80
2016,06,10,10,43,12.80
2016,06,10,10,44,12.90
2016,06,10,10,45,13.00
2016,06,10,10,46,13.10
2016,06,10,10,47,13.20
2016,06,10,10,48,13.30
2016,06,10,10,49,13.30
2016,06,10,10,50,13.40
2016,06,10,10,51,13.40
2016,06,10,10,52,13.40
2016,06,10,10,53,13.40
2016,06,10,10,54,13.40
2016,06,10,10,55,13.40
2016,06,10,10,56,13.50
2016,06,10,10,57,13.50
2016,06,10,10,58,13.50
2016,06,10,10,59,13.50
2016,06,10,11,00,13.40
2016,06,10,11,01,13.30
2016,06,10,11,02,13.20
2016,06,10,11,03,13.20
2016,06,10,11,04,13.10
2016,06,10,11,05,13.00
2016,06,10,11,06,13.00
2016,06,10,11,07,12.90
2016,06,10,11,08,12.90
2016,06,10,11,09,12.90
2016,06,10,11,10,12.90
2016,06,10,11,11,13.00
2016,06,10,11,12,13.00
2016,06,10,11,13,13.00
2016,06,10,11,14,13.00
2016,06,10,11,15,13.10
2016,06,10,11,16,13.10
2016,06,10,11,17,13.20
2016,06,10,11,18,13.20
2016,06,10,11,19,13.20
2016,06,10,11,20,13.20
2016,06,10,11,21,13.20
2016,06,10,11,22,13.20
2016,06,10,11,23,13.20
2016,06,10,11,24,13.20
2016,06,10,11,25,13.20
2016,06,10,11,26,13.20
2016,06,10,11,27,13.30
2016,06,10,11,28,13.30
2016,06,10,11,29,13.30
2016,06,10,11,30,13.30
2016,06,10,11,31,13.20
2016,06,10,11,32,13.20
2016,06,10,11,33,13.10
2016,06,10,11,34,13.10
2016,06,10,11,35,13.10
2016,06,10,11,36,13.10
2016,06,10,11,37,13.20
2016,06,10,11,38,13.20
2016,06,10,11,39,13.20
2016,06,10,11,40,13.20
2016,06,10,11,41,13.20
2016,06,10,11,42,13.20
2016,06,10,11,43,13.20
2016,06,10,11,44,13.20
2016,06,10,11,45,13.20
2016,06,10,11,46,13.10
2016,06,10,11,47,13.10
2016,06,10,11,48,13.10
2016,06,10,11,49,13.00
2016,06,10,11,50,13.00
2016,06,10,11,51,13.00
2016,06,10,11,52,13.00
2016,06,10,11,53,13.10
2016,06,10,11,54,13.10
2016,06,10,11,55,13.20
2016,06,10,11,56,13.30
2016,06,10,11,57,13.40
2016,06,10,11,58,13.50
2016,06,10,11,59,13.60
2016,06,10,12,00,13.70
2016,06,10,12,01,13.90
2016,06,10,12,02,13.90
2016,06,10,12,03,14.00
2016,06,10,12,04,14.00
2016,06,10,12,05,13.90
2016,06,10,12,06,13.90
2016,06,10,12,07,13.90
2016,06,10,12,08,14.00
2016,06,10,12,09,14.10
2016,06,10,12,10,14.20
2016,06,10,12,11,14.30
2016,06,10,12,12,14.40
2016,06,10,12,13,14.40
2016,06,10,12,14,14.40
2016,06,10,12,15,14.30
2016,06,10,12,16,14.40
2016,06,10,12,17,14.40
2016,06,10,12,18,14.40
2016,06,10,12,19,14.40
2016,06,10,12,20,14.40
2016,06,10,12,21,14.30
2016,06,10,12,22,14.30
2016,06,10,12,23,14.30
2016,06,10,12,24,14.30
2016,06,10,12,25,14.30
2016,06,10,12,26,14.40
2016,06,10,12,27,14.40
2016,06,10,12,28,14.40
2016,06,10,12,29,14.40
2016,06,10,12,30,14.40
2016,06,10,12,31,14.40
2016,06,10,12,32,14.40
2016,06,10,12,33,14.40
2016,06,10,12,34,14.40
2016,06,10,12,35,14.40
2016,06,10,12,36,14.40
2016,06,10,12,37,14.50
2016,06,10,12,38,14.50
2016,06,10,12,39,14.50
2016,06,10,12,40,14.50
2016,06,10,12,41,14.60
2016,06,10,12,42,14.60
2016,06,10,12,43,14.60
2016,06,10,12,44,14.50
2016,06,10,12,45,14.50
2016,06,10,12,46,14.40
2016,06,10,12,47,14.40
2016,06,10,12,48,14.40
2016,06,10,12,49,14.50
2016,06,10,12,50,14.50
2016,06,10,12,51,14.50
2016,06,10,12,52,14.60
2016,06,10,12,53,14.60
2016,06,10,12,54,14.70
2016,06,10,12,55,14.80
2016,06,10,12,56,15.00
2016,06,10,12,57,15.00
2016,06,10,12,58,15.00
2016,06,10,12,59,15.30
2016,06,10,13,00,15.50
2016,06,10,13,01,15.60
2016,06,10,13,02,15.60
2016,06,10,13,03,15.70
2016,06,10,13,04,15.60
2016,06,10,13,05,15.70
2016,06,10,13,06,15.70
2016,06,10,13,07,15.80
2016,06,10,13,08,15.90
2016,06,10,13,09,16.00
2016,06,10,13,10,16.00
2016,06,10,13,11,16.00
2016,06,10,13,12,15.90
2016,06,10,13,13,15.90
2016,06,10,13,14,15.90
2016,06,10,13,15,15.70
2016,06,10,13,16,15.70
2016,06,10,13,17,15.60
2016,06,10,13,18,15.60
2016,06,10,13,19,15.60
2016,06,10,13,20,15.60
2016,06,10,13,21,15.60
2016,06,10,13,22,15.60
2016,06,10,13,23,15.60
2016,06,10,13,24,15.60
2016,06,10,13,25,15.50
2016,06,10,13,26,15.50
2016,06,10,13,27,15.40
2016,06,10,13,28,15.40
2016,06,10,13,29,15.30
2016,06,10,13,30,15.30
2016,06,10,13,31,15.30
2016,06,10,13,32,15.20
2016,06,10,13,33,15.20
2016,06,10,13,34,15.10
2016,06,10,13,35,15.00
2016,06,10,13,36,15.00
2016,06,10,13,37,15.00
2016,06,10,13,38,15.00
2016,06,10,13,39,14.80
2016,06,10,13,40,14.70
2016,06,10,13,41,14.60
2016,06,10,13,42,14.50
2016,06,10,13,43,14.40
2016,06,10,13,44,14.30
2016,06,10,13,45,14.10
2016,06,10,13,46,14.00
2016,06,10,13,47,14.00
2016,06,10,13,48,13.90
2016,06,10,13,49,13.80
2016,06,10,13,50,13.80
2016,06,10,13,51,13.80
2016,06,10,13,52,13.80
2016,06,10,13,53,13.80
2016,06,10,13,54,13.70
2016,06,10,13,55,13.70
2016,06,10,13,56,13.60
2016,06,10,13,57,13.50
2016,06,10,13,58,13.40
2016,06,10,13,59,13.30
2016,06,10,14,00,13.30
2016,06,10,14,01,13.30
2016,06,10,14,02,13.30
2016,06,10,14,03,13.30
2016,06,10,14,04,13.30
2016,06,10,14,05,13.30
2016,06,10,14,06,13.40
2016,06,10,14,07,13.40
2016,06,10,14,08,13.50
2016,06,10,14,09,13.60
2016,06,10,14,10,13.70
2016,06,10,14,11,13.80
2016,06,10,14,12,13.90
2016,06,10,14,13,14.00
2016,06,10,14,14,14.20
2016,06,10,14,15,14.40
2016,06,10,14,16,14.60
2016,06,10,14,17,14.80
2016,06,10,14,18,15.00
2016,06,10,14,19,15.10
2016,06,10,14,20,15.20
2016,06,10,14,21,15.30
2016,06,10,14,22,15.20
2016,06,10,14,23,15.10
2016,06,10,14,24,15.10
2016,06,10,14,25,15.10
2016,06,10,14,26,15.30
2016,06,10,14,27,15.40
2016,06,10,14,28,15.50
2016,06,10,14,29,15.60
2016,06,10,14,30,15.60
2016,06,10,14,31,15.60
2016,06,10,14,32,15.60
2016,06,10,14,33,15.70
2016,06,10,14,34,15.80
2016,06,10,14,35,15.90
2016,06,10,14,36,16.00
2016,06,10,14,37,16.10
2016,06,10,14,38,16.10
2016,06,10,14,39,16.00
2016,06,10,14,40,16.00
2016,06,10,14,41,15.90
2016,06,10,14,42,15.90
2016,06,10,14,43,15.90
2016,06,10,14,44,15.90
2016,06,10,14,45,15.90
2016,06,10,14,46,15.90
2016,06,10,14,47,15.90
2016,06,10,14,48,15.80
2016,06,10,14,49,15.80
2016,06,10,14,50,15.80
2016,06,10,14,51,15.70
2016,06,10,14,52,15.70
2016,06,10,14,53,15.70
2016,06,10,14,54,15.70
2016,06,10,14,55,15.70
2016,06,10,14,56,15.70
2016,06,10,14,57,15.50
2016,06,10,14,58,15.40
2016,06,10,14,59,15.30
2016,06,10,15,00,15.20
2016,06,10,15,01,15.10
2016,06,10,15,02,15.10
2016,06,10,15,03,15.10
2016,06,10,15,04,15.00
2016,06,10,15,05,15.00
2016,06,10,15,06,15.00
2016,06,10,15,07,15.00
2016,06,10,15,08,15.00
2016,06,10,15,09,15.00
2016,06,10,15,10,15.00
2016,06,10,15,11,15.00
2016,06,10,15,12,15.00
2016,06,10,15,13,15.00
2016,06,10,15,14,15.00
2016,06,10,15,15,15.00
2016,06,10,15,16,15.00
2016,06,10,15,17,15.20
2016,06,10,15,18,15.20
2016,06,10,15,19,15.20
2016,06,10,15,20,15.30
2016,06,10,15,21,15.30
2016,06,10,15,22,15.30
2016,06,10,15,23,15.30
2016,06,10,15,24,15.30
2016,06,10,15,25,15.40
2016,06,10,15,26,15.40
2016,06,10,15,27,15.40
2016,06,10,15,28,15.40
2016,06,10,15,29,15.40
2016,06,10,15,30,15.30
2016,06,10,15,31,15.30
2016,06,10,15,32,15.30
2016,06,10,15,33,15.30
2016,06,10,15,34,15.40
2016,06,10,15,35,15.30
2016,06,10,15,36,15.30
2016,06,10,15,37,15.40
2016,06,10,15,38,15.30
2016,06,10,15,39,15.30
2016,06,10,15,40,15.20
2016,06,10,15,41,15.00
2016,06,10,15,42,15.00
2016,06,10,15,43,14.80
2016,06,10,15,44,14.60
2016,06,10,15,45,14.30
2016,06,10,15,46,14.10
2016,06,10,15,47,14.00
2016,06,10,15,48,13.90
2016,06,10,15,49,13.90
2016,06,10,15,50,13.80
2016,06,10,15,51,13.80
2016,06,10,15,52,13.80
2016,06,10,15,53,13.80
2016,06,10,15,54,13.90
2016,06,10,15,55,13.90
2016,06,10,15,56,13.90
2016,06,10,15,57,13.90
2016,06,10,15,58,13.90
2016,06,10,15,59,13.90
2016,06,10,16,00,13.90
2016,06,10,16,01,13.80
2016,06,10,16,02,13.90
2016,06,10,16,03,13.80
2016,06,10,16,04,13.80
2016,06,10,16,05,13.80
2016,06,10,16,06,13.80
2016,06,10,16,07,13.80
2016,06,10,16,08,13.80
2016,06,10,16,09,13.80
2016,06,10,16,10,13.80
2016,06,10,16,11,13.80
2016,06,10,16,12,13.80
2016,06,10,16,13,13.90
2016,06,10,16,14,14.00
2016,06,10,16,15,14.00
2016,06,10,16,16,14.10
2016,06,10,16,17,14.10
2016,06,10,16,18,14.20
2016,06,10,16,19,14.20
2016,06,10,16,20,14.20
2016,06,10,16,21,14.30
2016,06,10,16,22,14.30
2016,06,10,16,23,14.40
2016,06,10,16,24,14.40
2016,06,10,16,25,14.40
2016,06,10,16,26,14.50
2016,06,10,16,27,14.60
2016,06,10,16,28,14.60
2016,06,10,16,29,14.60
2016,06,10,16,30,14.50
2016,06,10,16,31,14.40
2016,06,10,16,32,14.40
2016,06,10,16,33,14.30
2016,06,10,16,34,14.30
2016,06,10,16,35,14.30
2016,06,10,16,36,14.30
2016,06,10,16,37,14.40
2016,06,10,16,38,14.40
2016,06,10,16,39,14.40
2016,06,10,16,40,14.40
2016,06,10,16,41,14.40
2016,06,10,16,42,14.40
2016,06,10,16,43,14.40
2016,06,10,16,44,14.40
2016,06,10,16,45,14.40
2016,06,10,16,46,14.30
2016,06,10,16,47,14.30
2016,06,10,16,48,14.20
2016,06,10,16,49,14.20
2016,06,10,16,50,14.20
2016,06,10,16,51,14.10
2016,06,10,16,52,14.10
2016,06,10,16,53,14.00
2016,06,10,16,54,14.00
2016,06,10,16,55,14.00
2016,06,10,16,56,13.90
2016,06,10,16,57,13.90
2016,06,10,16,58,13.90
2016,06,10,16,59,13.90
2016,06,10,17,00,13.90
2016,06,10,17,01,13.90
2016,06,10,17,02,13.90
2016,06,10,17,03,13.90
2016,06,10,17,04,13.80
2016,06,10,17,05,13.80
2016,06,10,17,06,13.70
2016,06,10,17,07,13.60
2016,06,10,17,08,13.50
2016,06,10,17,09,13.40
2016,06,10,17,10,13.40
2016,06,10,17,11,13.30
2016,06,10,17,12,13.30
2016,06,10,17,13,13.20
2016,06,10,17,14,13.20
2016,06,10,17,15,13.10
2016,06,10,17,16,13.10
2016,06,10,17,17,13.10
2016,06,10,17,18,13.10
2016,06,10,17,19,13.00
2016,06,10,17,20,13.00
2016,06,10,17,21,13.00
2016,06,10,17,22,12.90
2016,06,10,17,23,12.90
2016,06,10,17,24,12.80
2016,06,10,17,25,12.80
2016,06,10,17,26,12.80
2016,06,10,17,27,12.70
2016,06,10,17,28,12.70
2016,06,10,17,29,12.60
2016,06,10,17,30,12.60
2016,06,10,17,31,12.60
2016,06,10,17,32,12.50
2016,06,10,17,33,12.40
2016,06,10,17,34,12.40
2016,06,10,17,35,12.40
2016,06,10,17,36,12.30
2016,06,10,17,37,12.30
2016,06,10,17,38,12.20
2016,06,10,17,39,12.20
2016,06,10,17,40,12.10